Tracking 30995 objects as of 7-Jul-2025
HD Live streaming from Space Station
objects crossing your sky now

STARLINK-32533

Track STARLINK-32533 now!
10-day predictions
STARLINK-32533 is classified as:


NORAD ID: 61706
Int'l Code: 2024-195V
Perigee: 481.5 km
Apogee: 483.2 km
Inclination: 53.2 °
Period: 94.1 minutes
Semi major axis: 6853 km
RCS: Unknown
Launch date: October 30, 2024
Source: United States (US)
Launch site: AIR FORCE WESTERN TEST RANGE (AFWTR)
Your satellite tracking list
Your tracking list is empty




NASA's NSSDC Master Catalog

Two Line Element Set (TLE):
1 61706U 24195V   25187.36628989 -.00001214  00000-0 -28876-4 0  9990
2 61706  53.1587 219.1230 0001185  70.9936 289.1193 15.30201916 39472
Source of the keplerian elements: AFSPC